QPF
0.00 0.00 0.00 0.00 0.00 0.00 0.01 0.01 0.00 0.00 0.00 0.00 0.00 0.00 0.00 0.01 0.01 0.02 0.00 0.00 0.00 0.00 0.00 0.00 0.00 0.01 0.02 0.02 0.03 0.03 0.03 0.03 0.03 0.03 0.04 0.04 0.04 0.04 0.04 0.04 0.03 0.03 0.04 0.06 0.08 0.11 0.12 0.11 0.09
0.00 0.01 0.01 0.00 0.00 0.01 0.01 0.00 0.00 0.00 0.00 0.00 0.00 0.00 0.01 0.01 0.00 0.00 0.00 0.00 0.00 0.00 0.00 0.00 0.00 0.01 0.01 0.02 0.02 0.02 0.03 0.04 0.04 0.04 0.05 0.05 0.04 0.04 0.04 0.03 0.03 0.03 0.03 0.04 0.06 0.09 0.10 0.08 0.08
0.00 0.00 0.00 0.01 0.00 0.01 0.01 0.00 0.00 0.00 0.00 0.00 0.00 0.00 0.01 0.01 0.00 0.00 0.00 0.00 0.00 0.01 0.00 0.00 0.00 0.01 0.02 0.02 0.02 0.02 0.03 0.03 0.04 0.05 0.07 0.07 0.06 0.04 0.04 0.02 0.03 0.03 0.05 0.04 0.05 0.06 0.06 0.06 0.08
0.00 0.00 0.00 0.00 0.00 0.00 0.01 0.00 0.00 0.00 0.00 0.00 0.01 0.01 0.00 0.00 0.00 0.00 0.00 0.00 0.01 0.01 0.00 0.00 0.00 0.01 0.02 0.02 0.02 0.02 0.03 0.04 0.03 0.05 0.07 0.08 0.08 0.06 0.04 0.04 0.04 0.04 0.05 0.04 0.05 0.07 0.06 0.05 0.07
0.00 0.01 0.01 0.01 0.01 0.00 0.00 0.00 0.00 0.00 0.00 0.00 0.01 0.01 0.00 0.00 0.00 0.00 0.00 0.00 0.00 0.01 0.01 0.01 0.01 0.02 0.03 0.02 0.03 0.03 0.03 0.03 0.03 0.04 0.04 0.05 0.07 0.07 0.05 0.06 0.06 0.05 0.04 0.04 0.05 0.07 0.06 0.06 0.09
0.00 0.01 0.01 0.01 0.01 0.00 0.00 0.00 0.00 0.00 0.00 0.00 0.00 0.00 0.00 0.00 0.00 0.00 0.00 0.00 0.01 0.01 0.00 0.01 0.02 0.04 0.04 0.03 0.03 0.03 0.03 0.03 0.04 0.04 0.04 0.04 0.04 0.05 0.06 0.06 0.06 0.06 0.06 0.05 0.05 0.06 0.06 0.07 0.11
0.00 0.00 0.01 0.01 0.00 0.00 0.00 0.00 0.00 0.01 0.00 0.00 0.00 0.00 0.00 0.00 0.00 0.00 0.00 0.00 0.01 0.01 0.00 0.01 0.03 0.09 0.11 0.05 0.04 0.04 0.04 0.04 0.05 0.05 0.05 0.05 0.05 0.05 0.05 0.05 0.05 0.07 0.06 0.05 0.04 0.04 0.04 0.06 0.07
0.00 0.00 0.00 0.00 0.00 0.00 0.00 0.00 0.00 0.00 0.00 0.00 0.00 0.00 0.00 0.00 0.00 0.00 0.00 0.00 0.00 0.01 0.01 0.01 0.02 0.06 0.07 0.06 0.04 0.04 0.04 0.04 0.04 0.05 0.07 0.06 0.07 0.06 0.05 0.06 0.05 0.06 0.07 0.06 0.05 0.04 0.04 0.05 0.06
0.00 0.00 0.00 0.00 0.00 0.00 0.00 0.00 0.00 0.00 0.00 0.00 0.00 0.00 0.00 0.00 0.00 0.00 0.00 0.00 0.00 0.00 0.01 0.01 0.02 0.02 0.03 0.04 0.05 0.04 0.04 0.05 0.03 0.04 0.06 0.06 0.05 0.06 0.06 0.05 0.06 0.06 0.07 0.08 0.07 0.07 0.06 0.05 0.05
0.00 0.00 0.00 0.00 0.00 0.00 0.00 0.00 0.00 0.00 0.00 0.00 0.00 0.00 0.00 0.00 0.00 0.01 0.01 0.01 0.01 0.00 0.01 0.01 0.02 0.02 0.02 0.02 0.03 0.05 0.04 0.04 0.03 0.03 0.04 0.04 0.04 0.04 0.03 0.05 0.08 0.08 0.08 0.09 0.07 0.07 0.07 0.06 0.06
0.00 0.00 0.00 0.00 0.00 0.00 0.00 0.00 0.00 0.00 0.00 0.00 0.00 0.00 0.00 0.00 0.01 0.02 0.03 0.04 0.03 0.02 0.01 0.01 0.02 0.03 0.03 0.03 0.03 0.04 0.04 0.04 0.04 0.04 0.04 0.03 0.04 0.03 0.04 0.04 0.05 0.06 0.08 0.09 0.07 0.06 0.06 0.06 0.06
0.00 0.00 0.00 0.00 0.00 0.00 0.00 0.00 0.00 0.00 0.01 0.00 0.00 0.00 0.00 0.00 0.01 0.02 0.04 0.06 0.06 0.07 0.04 0.03 0.05 0.04 0.03 0.03 0.04 0.05 0.05 0.04 0.04 0.04 0.04 0.03 0.03 0.03 0.03 0.03 0.03 0.04 0.05 0.07 0.07 0.07 0.07 0.05 0.03
0.00 0.00 0.00 0.00 0.00 0.00 0.00 0.00 0.00 0.00 0.00 0.00 0.00 0.00 0.00 0.00 0.00 0.01 0.01 0.03 0.04 0.04 0.04 0.03 0.03 0.02 0.02 0.03 0.04 0.04 0.06 0.04 0.04 0.04 0.04 0.03 0.02 0.01 0.01 0.02 0.03 0.03 0.03 0.04 0.06 0.04 0.02 0.02 0.02
0.00 0.00 0.00 0.00 0.00 0.00 0.00 0.00 0.00 0.00 0.00 0.00 0.00 0.00 0.00 0.00 0.00 0.01 0.01 0.02 0.02 0.02 0.02 0.02 0.01 0.02 0.03 0.04 0.04 0.04 0.05 0.06 0.05 0.06 0.05 0.03 0.02 0.01 0.01 0.01 0.02 0.02 0.03 0.03 0.04 0.03 0.02 0.02 0.03
0.00 0.00 0.00 0.00 0.00 0.00 0.00 0.00 0.00 0.00 0.00 0.00 0.00 0.00 0.00 0.00 0.00 0.01 0.02 0.01 0.01 0.01 0.01 0.01 0.01 0.02 0.03 0.04 0.04 0.04 0.05 0.06 0.07 0.06 0.06 0.05 0.03 0.02 0.02 0.02 0.02 0.02 0.02 0.03 0.03 0.03 0.02 0.02 0.02
0.00 0.00 0.00 0.00 0.00 0.00 0.00 0.00 0.00 0.00 0.00 0.00 0.00 0.00 0.00 0.01 0.00 0.01 0.01 0.01 0.01 0.02 0.02 0.02 0.01 0.01 0.02 0.03 0.04 0.04 0.04 0.05 0.06 0.07 0.07 0.06 0.05 0.04 0.04 0.03 0.02 0.03 0.03 0.03 0.04 0.03 0.03 0.03 0.04
0.00 0.00 0.00 0.00 0.00 0.00 0.00 0.00 0.00 0.00 0.00 0.00 0.00 0.00 0.00 0.01 0.01 0.01 0.01 0.01 0.02 0.02 0.02 0.01 0.01 0.01 0.02 0.02 0.03 0.03 0.03 0.04 0.04 0.06 0.06 0.06 0.07 0.05 0.04 0.03 0.03 0.04 0.03 0.04 0.04 0.04 0.04 0.05 0.05
0.00 0.00 0.00 0.00 0.00 0.00 0.00 0.00 0.00 0.00 0.00 0.00 0.00 0.00 0.00 0.01 0.01 0.01 0.01 0.02 0.02 0.03 0.03 0.02 0.01 0.02 0.03 0.04 0.05 0.05 0.04 0.05 0.05 0.05 0.05 0.05 0.06 0.05 0.03 0.03 0.03 0.04 0.05 0.05 0.05 0.05 0.05 0.05 0.06
0.00 0.00 0.00 0.00 0.00 0.00 0.00 0.00 0.00 0.00 0.00 0.00 0.00 0.00 0.00 0.01 0.02 0.01 0.02 0.02 0.03 0.03 0.03 0.01 0.01 0.02 0.03 0.04 0.06 0.08 0.08 0.06 0.04 0.04 0.05 0.06 0.05 0.04 0.03 0.03 0.03 0.03 0.04 0.05 0.05 0.05 0.05 0.05 0.05
0.00 0.00 0.00 0.00 0.00 0.00 0.00 0.00 0.00 0.00 0.00 0.00 0.00 0.00 0.01 0.01 0.03 0.01 0.01 0.02 0.03 0.03 0.03 0.02 0.01 0.02 0.03 0.06 0.08 0.07 0.08 0.09 0.06 0.04 0.05 0.05 0.05 0.05 0.04 0.04 0.03 0.04 0.05 0.06 0.05 0.05 0.06 0.06 0.06
0.00 0.00 0.00 0.00 0.00 0.00 0.00 0.00 0.00 0.00 0.00 0.00 0.00 0.00 0.00 0.01 0.01 0.01 0.01 0.01 0.03 0.04 0.04 0.02 0.01 0.02 0.03 0.05 0.08 0.06 0.07 0.07 0.06 0.05 0.04 0.04 0.04 0.05 0.05 0.04 0.03 0.04 0.04 0.04 0.05 0.06 0.07 0.07 0.07
0.00 0.00 0.00 0.00 0.00 0.00 0.00 0.00 0.00 0.00 0.00 0.00 0.00 0.00 0.01 0.01 0.01 0.01 0.00 0.00 0.01 0.02 0.03 0.02 0.01 0.01 0.02 0.03 0.05 0.06 0.07 0.06 0.05 0.04 0.03 0.02 0.02 0.03 0.05 0.05 0.04 0.04 0.04 0.04 0.05 0.06 0.07 0.08 0.09
0.00 0.00 0.00 0.00 0.00 0.00 0.00 0.00 0.00 0.00 0.00 0.01 0.01 0.00 0.01 0.01 0.01 0.01 0.00 0.00 0.01 0.01 0.01 0.01 0.01 0.01 0.02 0.02 0.03 0.04 0.04 0.04 0.03 0.04 0.03 0.02 0.03 0.04 0.06 0.05 0.04 0.04 0.04 0.04 0.05 0.06 0.07 0.06 0.06
0.00 0.00 0.00 0.00 0.00 0.00 0.00 0.00 0.00 0.00 0.00 0.00 0.01 0.01 0.01 0.01 0.01 0.01 0.01 0.01 0.01 0.01 0.01 0.01 0.02 0.02 0.01 0.01 0.02 0.02 0.02 0.02 0.02 0.03 0.02 0.03 0.04 0.05 0.06 0.05 0.07 0.05 0.04 0.05 0.05 0.05 0.05 0.05 0.05
0.00 0.01 0.01 0.01 0.00 0.00 0.00 0.00 0.00 0.00 0.00 0.00 0.00 0.01 0.01 0.01 0.01 0.01 0.01 0.01 0.01 0.01 0.01 0.01 0.03 0.02 0.01 0.01 0.01 0.02 0.02 0.02 0.01 0.02 0.02 0.02 0.02 0.04 0.06 0.06 0.05 0.04 0.04 0.04 0.04 0.04 0.04 0.05 0.06
0.00 0.01 0.01 0.01 0.01 0.01 0.01 0.00 0.00 0.00 0.00 0.00 0.00 0.00 0.00 0.00 0.00 0.00 0.01 0.01 0.01 0.01 0.01 0.01 0.02 0.02 0.01 0.01 0.02 0.02 0.03 0.02 0.02 0.02 0.02 0.02 0.02 0.04 0.04 0.03 0.03 0.04 0.04 0.04 0.05 0.06 0.05 0.04 0.04
0.00 0.01 0.01 0.01 0.01 0.01 0.01 0.00 0.00 0.00 0.00 0.00 0.00 0.00 0.00 0.00 0.00 0.01 0.01 0.01 0.01 0.01 0.01 0.01 0.03 0.02 0.02 0.02 0.02 0.03 0.03 0.03 0.02 0.02 0.02 0.03 0.03 0.03 0.02 0.02 0.03 0.04 0.05 0.05 0.04 0.04 0.04 0.04 0.05
0.01 0.01 0.01 0.01 0.01 0.01 0.01 0.01 0.01 0.00 0.00 0.00 0.01 0.01 0.01 0.01 0.01 0.01 0.01 0.01 0.02 0.02 0.01 0.02 0.03 0.03 0.03 0.03 0.04 0.04 0.04 0.04 0.04 0.03 0.03 0.03 0.03 0.03 0.03 0.03 0.04 0.04 0.04 0.04 0.05 0.05 0.04 0.05 0.05
0.01 0.01 0.01 0.01 0.01 0.01 0.01 0.01 0.01 0.00 0.00 0.00 0.00 0.00 0.00 0.00 0.01 0.01 0.02 0.02 0.02 0.02 0.03 0.03 0.05 0.05 0.04 0.03 0.04 0.04 0.04 0.04 0.05 0.04 0.04 0.04 0.04 0.04 0.04 0.04 0.04 0.04 0.04 0.04 0.06 0.06 0.05 0.04 0.05
0.00 0.00 0.01 0.01 0.01 0.01 0.01 0.01 0.01 0.01 0.01 0.00 0.00 0.00 0.00 0.01 0.01 0.02 0.02 0.02 0.02 0.03 0.03 0.04 0.05 0.06 0.05 0.05 0.04 0.04 0.03 0.04 0.04 0.04 0.03 0.03 0.03 0.03 0.03 0.03 0.04 0.04 0.05 0.05 0.05 0.04 0.04 0.04 0.04
MSLP
1009.88 1010.15 1010.52 1010.92 1011.27 1011.54 1011.71 1011.80 1011.87 1011.96 1012.13 1012.36 1012.62 1012.85 1012.98 1012.97 1012.80 1012.51 1012.18 1011.91 1011.80 1011.91 1012.24 1012.78 1013.41 1014.03 1014.53 1014.86 1014.98 1014.94 1014.80 1014.67 1014.61 1014.66 1014.84 1015.09 1015.35 1015.57 1015.71 1015.73 1015.68 1015.60 1015.55 1015.57 1015.68 1015.88 1016.13 1016.36 1016.55
1009.98 1010.34 1010.78 1011.22 1011.58 1011.80 1011.89 1011.87 1011.82 1011.79 1011.83 1011.97 1012.17 1012.38 1012.52 1012.55 1012.45 1012.24 1012.00 1011.81 1011.77 1011.93 1012.32 1012.89 1013.56 1014.21 1014.75 1015.11 1015.28 1015.27 1015.18 1015.07 1015.02 1015.07 1015.22 1015.44 1015.67 1015.85 1015.95 1015.95 1015.88 1015.80 1015.77 1015.81 1015.95 1016.17 1016.43 1016.67 1016.83
1010.23 1010.67 1011.16 1011.61 1011.94 1012.09 1012.08 1011.95 1011.76 1011.61 1011.56 1011.62 1011.78 1011.98 1012.16 1012.25 1012.22 1012.09 1011.91 1011.78 1011.78 1011.97 1012.38 1012.95 1013.63 1014.31 1014.89 1015.30 1015.52 1015.58 1015.54 1015.47 1015.45 1015.50 1015.64 1015.82 1016.01 1016.15 1016.21 1016.19 1016.12 1016.06 1016.04 1016.11 1016.27 1016.50 1016.75 1016.95 1017.08
1010.59 1011.10 1011.63 1012.07 1012.34 1012.41 1012.29 1012.03 1011.73 1011.47 1011.34 1011.35 1011.50 1011.72 1011.94 1012.09 1012.13 1012.06 1011.94 1011.85 1011.86 1012.04 1012.43 1012.99 1013.66 1014.35 1014.95 1015.42 1015.71 1015.84 1015.87 1015.86 1015.87 1015.93 1016.04 1016.19 1016.34 1016.45 1016.49 1016.47 1016.42 1016.38 1016.39 1016.49 1016.66 1016.87 1017.09 1017.24 1017.30
1011.02 1011.57 1012.11 1012.51 1012.73 1012.71 1012.48 1012.12 1011.72 1011.38 1011.19 1011.18 1011.33 1011.58 1011.85 1012.07 1012.18 1012.17 1012.09 1012.01 1012.01 1012.17 1012.51 1013.03 1013.67 1014.34 1014.96 1015.47 1015.83 1016.03 1016.14 1016.18 1016.22 1016.29 1016.40 1016.53 1016.65 1016.74 1016.77 1016.77 1016.74 1016.74 1016.79 1016.91 1017.07 1017.27 1017.43 1017.52 1017.51
1011.43 1012.00 1012.52 1012.89 1013.03 1012.93 1012.62 1012.17 1011.69 1011.31 1011.09 1011.07 1011.24 1011.54 1011.87 1012.15 1012.33 1012.38 1012.33 1012.25 1012.24 1012.35 1012.63 1013.08 1013.67 1014.31 1014.93 1015.47 1015.87 1016.14 1016.31 1016.41 1016.48 1016.57 1016.67 1016.79 1016.89 1016.97 1017.02 1017.04 1017.06 1017.10 1017.19 1017.32 1017.49 1017.65 1017.76 1017.78 1017.71
1011.77 1012.34 1012.83 1013.14 1013.21 1013.04 1012.65 1012.14 1011.62 1011.21 1010.98 1010.97 1011.17 1011.52 1011.91 1012.27 1012.51 1012.61 1012.60 1012.54 1012.50 1012.57 1012.79 1013.17 1013.69 1014.28 1014.88 1015.41 1015.84 1016.16 1016.37 1016.52 1016.62 1016.72 1016.83 1016.94 1017.05 1017.13 1017.20 1017.26 1017.32 1017.40 1017.53 1017.67 1017.83 1017.97 1018.03 1018.00 1017.87
1012.02 1012.55 1012.99 1013.23 1013.23 1012.99 1012.56 1012.01 1011.46 1011.04 1010.82 1010.83 1011.07 1011.46 1011.92 1012.34 1012.65 1012.82 1012.85 1012.81 1012.77 1012.81 1012.97 1013.28 1013.73 1014.26 1014.81 1015.33 1015.76 1016.10 1016.34 1016.51 1016.65 1016.77 1016.88 1017.00 1017.11 1017.21 1017.30 1017.39 1017.49 1017.62 1017.77 1017.93 1018.08 1018.19 1018.23 1018.16 1018.00
1012.20 1012.67 1013.02 1013.18 1013.11 1012.82 1012.34 1011.77 1011.21 1010.79 1010.58 1010.61 1010.88 1011.31 1011.82 1012.31 1012.69 1012.92 1013.02 1013.03 1013.00 1013.03 1013.15 1013.41 1013.78 1014.25 1014.74 1015.22 1015.63 1015.97 1016.23 1016.43 1016.58 1016.72 1016.85 1016.98 1017.10 1017.22 1017.34 1017.46 1017.59 1017.74 1017.91 1018.08 1018.23 1018.33 1018.35 1018.27 1018.10
1012.33 1012.71 1012.96 1013.04 1012.89 1012.54 1012.03 1011.44 1010.88 1010.46 1010.26 1010.31 1010.59 1011.06 1011.60 1012.15 1012.60 1012.91 1013.08 1013.15 1013.17 1013.20 1013.31 1013.52 1013.84 1014.24 1014.67 1015.10 1015.49 1015.82 1016.08 1016.29 1016.47 1016.63 1016.78 1016.93 1017.07 1017.21 1017.35 1017.48 1017.63 1017.79 1017.97 1018.14 1018.28 1018.38 1018.39 1018.33 1018.18
1012.46 1012.73 1012.88 1012.85 1012.63 1012.22 1011.68 1011.07 1010.51 1010.09 1009.89 1009.95 1010.23 1010.71 1011.28 1011.86 1012.37 1012.76 1013.02 1013.16 1013.24 1013.32 1013.43 1013.63 1013.91 1014.25 1014.63 1015.01 1015.36 1015.66 1015.93 1016.15 1016.35 1016.54 1016.71 1016.89 1017.06 1017.22 1017.37 1017.51 1017.66 1017.82 1017.99 1018.15 1018.29 1018.38 1018.41 1018.36 1018.25
1012.60 1012.76 1012.80 1012.68 1012.38 1011.92 1011.34 1010.73 1010.16 1009.74 1009.53 1009.57 1009.84 1010.30 1010.88 1011.49 1012.05 1012.51 1012.85 1013.08 1013.23 1013.37 1013.52 1013.72 1013.98 1014.28 1014.61 1014.95 1015.26 1015.55 1015.81 1016.04 1016.27 1016.48 1016.70 1016.90 1017.10 1017.28 1017.44 1017.59 1017.73 1017.87 1018.02 1018.16 1018.28 1018.38 1018.42 1018.40 1018.32
1012.76 1012.82 1012.75 1012.54 1012.17 1011.67 1011.07 1010.44 1009.87 1009.44 1009.21 1009.23 1009.47 1009.90 1010.47 1011.08 1011.67 1012.19 1012.60 1012.92 1013.16 1013.37 1013.57 1013.80 1014.05 1014.34 1014.64 1014.94 1015.23 1015.50 1015.75 1016.00 1016.24 1016.49 1016.73 1016.98 1017.20 1017.40 1017.57 1017.72 1017.84 1017.96 1018.08 1018.19 1018.30 1018.39 1018.44 1018.44 1018.40
1012.89 1012.86 1012.71 1012.43 1012.02 1011.49 1010.87 1010.24 1009.67 1009.23 1008.99 1008.96 1009.16 1009.55 1010.08 1010.68 1011.28 1011.84 1012.32 1012.71 1013.05 1013.33 1013.60 1013.87 1014.15 1014.44 1014.73 1015.01 1015.27 1015.52 1015.77 1016.02 1016.27 1016.54 1016.81 1017.08 1017.34 1017.56 1017.74 1017.88 1018.00 1018.09 1018.18 1018.27 1018.35 1018.43 1018.48 1018.50 1018.48
1012.97 1012.88 1012.67 1012.35 1011.91 1011.37 1010.76 1010.14 1009.57 1009.12 1008.85 1008.78 1008.93 1009.26 1009.74 1010.31 1010.91 1011.49 1012.02 1012.48 1012.90 1013.27 1013.61 1013.94 1014.26 1014.57 1014.86 1015.13 1015.38 1015.61 1015.84 1016.08 1016.33 1016.61 1016.90 1017.19 1017.46 1017.70 1017.89 1018.04 1018.15 1018.22 1018.29 1018.35 1018.41 1018.47 1018.52 1018.55 1018.55
1012.96 1012.83 1012.60 1012.27 1011.83 1011.30 1010.71 1010.11 1009.55 1009.09 1008.79 1008.67 1008.76 1009.03 1009.44 1009.97 1010.55 1011.13 1011.70 1012.22 1012.71 1013.16 1013.58 1013.98 1014.35 1014.70 1015.01 1015.28 1015.52 1015.74 1015.94 1016.16 1016.40 1016.66 1016.94 1017.23 1017.51 1017.76 1017.97 1018.13 1018.24 1018.31 1018.37 1018.42 1018.46 1018.51 1018.55 1018.58 1018.59
1012.87 1012.73 1012.50 1012.18 1011.77 1011.28 1010.72 1010.13 1009.57 1009.10 1008.76 1008.58 1008.60 1008.79 1009.14 1009.61 1010.16 1010.74 1011.33 1011.91 1012.46 1012.99 1013.49 1013.97 1014.40 1014.79 1015.13 1015.42 1015.66 1015.86 1016.04 1016.23 1016.43 1016.66 1016.92 1017.19 1017.47 1017.72 1017.94 1018.11 1018.23 1018.32 1018.38 1018.43 1018.47 1018.51 1018.55 1018.58 1018.58
1012.71 1012.59 1012.39 1012.12 1011.75 1011.29 1010.76 1010.19 1009.62 1009.11 1008.71 1008.46 1008.39 1008.50 1008.78 1009.19 1009.70 1010.27 1010.88 1011.50 1012.12 1012.72 1013.31 1013.86 1014.36 1014.81 1015.19 1015.51 1015.75 1015.95 1016.11 1016.25 1016.41 1016.60 1016.81 1017.06 1017.31 1017.56 1017.79 1017.97 1018.12 1018.23 1018.31 1018.37 1018.41 1018.46 1018.50 1018.53 1018.53
1012.54 1012.46 1012.32 1012.10 1011.78 1011.36 1010.84 1010.25 1009.65 1009.07 1008.59 1008.25 1008.08 1008.10 1008.29 1008.64 1009.12 1009.69 1010.32 1010.98 1011.66 1012.33 1012.99 1013.62 1014.20 1014.71 1015.15 1015.50 1015.77 1015.97 1016.11 1016.23 1016.35 1016.49 1016.65 1016.85 1017.08 1017.31 1017.54 1017.74 1017.91 1018.05 1018.15 1018.23 1018.30 1018.35 1018.39 1018.42 1018.44
1012.41 1012.38 1012.30 1012.14 1011.87 1011.47 1010.94 1010.31 1009.63 1008.96 1008.36 1007.90 1007.61 1007.53 1007.64 1007.94 1008.39 1008.97 1009.62 1010.33 1011.06 1011.80 1012.53 1013.23 1013.88 1014.47 1014.97 1015.37 1015.68 1015.91 1016.06 1016.17 1016.26 1016.36 1016.48 1016.64 1016.82 1017.03 1017.25 1017.46 1017.65 1017.81 1017.94 1018.04 1018.12 1018.19 1018.23 1018.27 1018.29
1012.31 1012.36 1012.35 1012.25 1012.02 1011.61 1011.05 1010.34 1009.54 1008.73 1007.99 1007.39 1006.97 1006.78 1006.82 1007.08 1007.52 1008.11 1008.81 1009.56 1010.35 1011.16 1011.95 1012.71 1013.43 1014.07 1014.64 1015.12 1015.49 1015.77 1015.96 1016.09 1016.18 1016.26 1016.35 1016.46 1016.61 1016.79 1016.99 1017.19 1017.39 1017.56 1017.71 1017.83 1017.92 1017.99 1018.03 1018.07 1018.10
1012.24 1012.37 1012.44 1012.39 1012.17 1011.75 1011.11 1010.29 1009.35 1008.38 1007.47 1006.71 1006.16 1005.87 1005.85 1006.09 1006.55 1007.17 1007.92 1008.73 1009.58 1010.43 1011.28 1012.09 1012.86 1013.57 1014.20 1014.75 1015.21 1015.56 1015.83 1016.01 1016.13 1016.22 1016.29 1016.38 1016.49 1016.63 1016.80 1016.98 1017.17 1017.34 1017.49 1017.61 1017.70 1017.76 1017.80 1017.82 1017.84
1012.14 1012.35 1012.49 1012.49 1012.27 1011.80 1011.07 1010.12 1009.02 1007.88 1006.80 1005.89 1005.23 1004.86 1004.81 1005.04 1005.53 1006.22 1007.02 1007.90 1008.81 1009.71 1010.59 1011.43 1012.23 1012.99 1013.69 1014.32 1014.86 1015.32 1015.67 1015.94 1016.12 1016.24 1016.33 1016.41 1016.49 1016.59 1016.71 1016.86 1017.01 1017.16 1017.29 1017.40 1017.47 1017.51 1017.52 1017.52 1017.52
1011.93 1012.22 1012.43 1012.45 1012.22 1011.70 1010.87 1009.79 1008.54 1007.24 1006.01 1004.98 1004.22 1003.81 1003.75 1004.02 1004.57 1005.32 1006.21 1007.15 1008.11 1009.04 1009.94 1010.80 1011.62 1012.41 1013.15 1013.85 1014.49 1015.05 1015.51 1015.88 1016.15 1016.33 1016.44 1016.52 1016.57 1016.63 1016.70 1016.80 1016.90 1017.01 1017.11 1017.19 1017.23 1017.24 1017.22 1017.18 1017.15
1011.57 1011.92 1012.17 1012.21 1011.96 1011.38 1010.47 1009.28 1007.91 1006.48 1005.14 1004.02 1003.22 1002.80 1002.77 1003.10 1003.72 1004.57 1005.53 1006.54 1007.54 1008.50 1009.41 1010.26 1011.08 1011.87 1012.65 1013.40 1014.12 1014.77 1015.35 1015.82 1016.18 1016.43 1016.58 1016.66 1016.69 1016.71 1016.73 1016.76 1016.82 1016.88 1016.93 1016.97 1016.98 1016.95 1016.89 1016.82 1016.75
1011.03 1011.43 1011.69 1011.73 1011.45 1010.82 1009.84 1008.57 1007.12 1005.63 1004.24 1003.09 1002.29 1001.90 1001.93 1002.34 1003.06 1003.99 1005.04 1006.11 1007.15 1008.12 1009.01 1009.84 1010.64 1011.42 1012.21 1012.99 1013.77 1014.51 1015.18 1015.74 1016.19 1016.50 1016.69 1016.78 1016.79 1016.77 1016.74 1016.71 1016.71 1016.72 1016.73 1016.73 1016.71 1016.65 1016.55 1016.44 1016.34
1010.36 1010.75 1011.01 1011.02 1010.71 1010.04 1009.02 1007.71 1006.24 1004.73 1003.35 1002.24 1001.50 1001.18 1001.29 1001.79 1002.61 1003.63 1004.74 1005.86 1006.92 1007.89 1008.76 1009.56 1010.32 1011.08 1011.85 1012.65 1013.46 1014.26 1014.99 1015.63 1016.14 1016.50 1016.72 1016.82 1016.82 1016.76 1016.68 1016.60 1016.55 1016.52 1016.50 1016.47 1016.43 1016.35 1016.23 1016.10 1015.95
1009.63 1009.98 1010.18 1010.14 1009.78 1009.08 1008.04 1006.75 1005.31 1003.86 1002.55 1001.52 1000.87 1000.65 1000.86 1001.46 1002.35 1003.44 1004.60 1005.75 1006.82 1007.78 1008.63 1009.40 1010.12 1010.85 1011.60 1012.39 1013.21 1014.03 1014.81 1015.49 1016.04 1016.43 1016.67 1016.76 1016.74 1016.66 1016.54 1016.43 1016.34 1016.28 1016.24 1016.20 1016.15 1016.06 1015.94 1015.79 1015.63
1008.92 1009.17 1009.28 1009.16 1008.74 1008.02 1007.00 1005.75 1004.39 1003.05 1001.87 1000.97 1000.44 1000.34 1000.64 1001.31 1002.27 1003.39 1004.58 1005.74 1006.81 1007.75 1008.58 1009.32 1010.02 1010.71 1011.44 1012.22 1013.03 1013.85 1014.63 1015.32 1015.88 1016.28 1016.51 1016.60 1016.57 1016.46 1016.32 1016.18 1016.07 1016.00 1015.96 1015.92 1015.88 1015.80 1015.68 1015.53 1015.35
1008.29 1008.41 1008.39 1008.16 1007.68 1006.93 1005.94 1004.78 1003.54 1002.35 1001.33 1000.58 1000.19 1000.19 1000.58 1001.31 1002.29 1003.42 1004.60 1005.75 1006.80 1007.74 1008.55 1009.28 1009.97 1010.65 1011.36 1012.12 1012.91 1013.71 1014.48 1015.15 1015.70 1016.08 1016.30 1016.38 1016.33 1016.21 1016.05 1015.91 1015.79 1015.72 1015.68 1015.65 1015.62 1015.55 1015.44 1015.29 1015.12
Thickness
5814 5820 5824 5820 5814 5814 5804 5807 5815 5814 5816 5822 5822 5817 5811 5807 5800 5792 5812 5820 5816 5811 5802 5792 5786 5783 5780 5777 5775 5772 5770 5768 5767 5765 5764 5762 5761 5760 5759 5758 5757 5756 5756 5756 5755 5754 5754 5754 5753
5822 5823 5820 5818 5812 5801 5799 5810 5811 5813 5819 5824 5821 5817 5812 5810 5814 5812 5814 5814 5813 5808 5801 5793 5785 5781 5778 5775 5773 5770 5768 5766 5764 5762 5761 5759 5758 5757 5756 5755 5755 5754 5754 5753 5753 5752 5752 5752 5752
5823 5823 5818 5817 5808 5801 5800 5812 5814 5820 5824 5821 5817 5818 5813 5809 5813 5813 5815 5813 5811 5806 5800 5791 5783 5779 5776 5773 5771 5768 5766 5764 5761 5760 5758 5757 5756 5755 5754 5753 5752 5751 5751 5751 5751 5750 5750 5749 5749
5821 5819 5819 5811 5801 5807 5809 5814 5818 5817 5819 5821 5818 5812 5815 5816 5817 5818 5816 5813 5809 5804 5799 5788 5781 5777 5774 5771 5769 5766 5764 5761 5759 5757 5755 5754 5753 5752 5751 5751 5750 5749 5748 5748 5748 5747 5747 5746 5746
5821 5816 5807 5802 5801 5810 5817 5819 5819 5815 5815 5818 5816 5809 5809 5815 5819 5818 5814 5810 5806 5802 5797 5788 5779 5775 5772 5769 5766 5764 5761 5759 5757 5755 5753 5752 5751 5750 5749 5748 5747 5747 5746 5745 5745 5744 5744 5744 5744
5814 5812 5799 5794 5799 5809 5817 5821 5819 5816 5817 5818 5815 5809 5809 5815 5814 5813 5812 5808 5806 5800 5796 5786 5777 5773 5770 5767 5764 5762 5759 5757 5755 5753 5751 5750 5749 5748 5747 5746 5745 5744 5743 5743 5742 5742 5741 5741 5740
5806 5803 5795 5796 5796 5803 5812 5821 5817 5814 5814 5817 5820 5809 5809 5811 5812 5813 5810 5807 5803 5799 5794 5786 5780 5773 5768 5765 5762 5759 5757 5755 5753 5751 5749 5748 5747 5746 5745 5744 5743 5742 5741 5740 5740 5739 5739 5738 5738
5812 5803 5797 5797 5794 5800 5815 5818 5819 5816 5815 5825 5822 5810 5807 5809 5811 5809 5806 5803 5800 5795 5791 5785 5782 5776 5771 5767 5761 5758 5755 5753 5750 5748 5747 5746 5745 5744 5743 5742 5741 5740 5739 5738 5737 5737 5737 5736 5736
5810 5796 5792 5796 5796 5804 5815 5813 5818 5824 5819 5818 5820 5818 5817 5813 5809 5803 5799 5796 5793 5790 5788 5785 5781 5776 5773 5769 5762 5757 5754 5751 5749 5747 5745 5744 5746 5745 5743 5742 5739 5738 5737 5736 5735 5735 5734 5734 5734
5801 5790 5797 5806 5809 5808 5812 5811 5813 5813 5809 5810 5812 5814 5813 5808 5804 5799 5795 5791 5789 5786 5785 5783 5780 5776 5772 5768 5762 5759 5756 5752 5750 5748 5746 5745 5745 5744 5743 5739 5737 5736 5735 5734 5733 5733 5733 5734 5736
5800 5794 5804 5809 5813 5812 5810 5811 5816 5807 5804 5809 5808 5808 5806 5803 5801 5798 5796 5793 5790 5787 5783 5782 5778 5774 5771 5767 5763 5760 5757 5753 5750 5748 5745 5744 5743 5742 5741 5740 5737 5735 5734 5735 5733 5734 5735 5736 5736
5797 5800 5804 5807 5812 5809 5808 5810 5809 5808 5810 5818 5817 5813 5807 5801 5800 5799 5797 5794 5791 5786 5782 5780 5777 5772 5769 5766 5763 5759 5756 5753 5751 5746 5744 5743 5742 5741 5740 5739 5738 5736 5735 5734 5733 5733 5733 5733 5733
5794 5798 5804 5808 5809 5809 5808 5806 5806 5809 5817 5819 5816 5811 5807 5804 5802 5802 5800 5796 5790 5785 5781 5778 5775 5770 5766 5763 5760 5758 5755 5753 5749 5745 5743 5741 5741 5740 5738 5736 5734 5735 5734 5732 5731 5731 5730 5730 5731
5798 5798 5801 5806 5806 5807 5802 5806 5806 5809 5817 5814 5810 5807 5807 5804 5802 5799 5795 5791 5787 5783 5779 5777 5772 5768 5763 5760 5758 5755 5753 5749 5748 5745 5742 5739 5739 5737 5735 5733 5731 5732 5731 5730 5729 5728 5727 5728 5729
5796 5789 5796 5804 5805 5806 5802 5796 5804 5813 5814 5808 5807 5805 5803 5802 5801 5797 5794 5790 5787 5782 5778 5774 5770 5766 5762 5759 5756 5754 5751 5749 5747 5744 5740 5737 5736 5733 5732 5731 5729 5729 5727 5725 5724 5725 5725 5724 5725
5789 5784 5782 5798 5802 5802 5791 5786 5807 5814 5808 5803 5803 5801 5799 5799 5799 5797 5794 5790 5787 5782 5777 5773 5771 5766 5761 5757 5754 5753 5750 5748 5745 5742 5739 5735 5733 5730 5728 5728 5728 5725 5724 5723 5722 5722 5722 5722 5722
5781 5776 5779 5790 5800 5797 5790 5788 5805 5811 5805 5800 5800 5798 5796 5795 5795 5795 5793 5789 5785 5780 5775 5771 5769 5765 5760 5756 5752 5750 5747 5745 5743 5740 5737 5733 5730 5728 5727 5726 5725 5722 5722 5721 5721 5721 5720 5718 5718
5774 5777 5779 5783 5795 5791 5787 5791 5802 5807 5803 5800 5799 5797 5794 5792 5792 5793 5790 5787 5782 5777 5773 5769 5765 5762 5758 5754 5749 5747 5744 5743 5741 5738 5735 5731 5729 5726 5725 5724 5721 5721 5720 5718 5717 5715 5715 5714 5713
5779 5775 5776 5785 5794 5785 5784 5788 5797 5803 5801 5798 5796 5795 5793 5792 5793 5791 5787 5783 5779 5774 5769 5766 5762 5759 5755 5751 5748 5744 5741 5740 5738 5736 5732 5729 5726 5724 5722 5723 5719 5717 5717 5714 5713 5712 5711 5711 5711
5771 5768 5773 5782 5787 5779 5780 5785 5797 5799 5797 5797 5794 5792 5790 5789 5787 5784 5782 5779 5775 5771 5767 5764 5760 5757 5753 5751 5747 5743 5740 5738 5736 5733 5729 5726 5724 5722 5721 5718 5718 5716 5713 5711 5709 5707 5707 5707 5707
5766 5766 5769 5771 5777 5780 5774 5777 5789 5796 5798 5796 5793 5793 5792 5787 5783 5780 5778 5776 5774 5769 5766 5764 5760 5756 5752 5749 5745 5741 5736 5734 5732 5729 5727 5725 5722 5720 5719 5717 5716 5713 5712 5709 5705 5704 5701 5702 5703
5760 5774 5770 5767 5761 5767 5768 5759 5783 5789 5788 5788 5789 5790 5789 5786 5783 5781 5778 5774 5772 5770 5767 5762 5758 5753 5750 5746 5743 5739 5734 5731 5730 5728 5727 5723 5720 5718 5717 5715 5713 5711 5710 5706 5704 5703 5700 5698 5698
5766 5775 5768 5764 5759 5758 5766 5757 5776 5786 5779 5783 5786 5787 5786 5785 5783 5780 5778 5775 5772 5769 5766 5761 5756 5751 5748 5744 5741 5736 5733 5731 5729 5726 5723 5720 5719 5717 5715 5712 5710 5708 5707 5704 5702 5700 5697 5696 5696
5769 5764 5762 5762 5760 5744 5760 5755 5764 5781 5779 5782 5785 5784 5782 5782 5781 5778 5776 5773 5769 5767 5763 5759 5753 5748 5745 5741 5738 5734 5730 5728 5725 5721 5719 5717 5717 5715 5713 5711 5707 5705 5704 5701 5699 5697 5695 5694 5692
5759 5747 5737 5736 5740 5747 5766 5757 5764 5781 5784 5782 5781 5781 5779 5778 5775 5772 5770 5767 5764 5762 5759 5755 5750 5745 5742 5739 5736 5732 5728 5725 5721 5719 5717 5715 5715 5712 5710 5709 5705 5703 5700 5698 5696 5694 5693 5691 5688
5755 5750 5733 5724 5734 5751 5759 5754 5771 5782 5782 5781 5780 5778 5775 5772 5770 5767 5764 5761 5759 5757 5754 5751 5746 5742 5739 5736 5733 5730 5726 5723 5722 5718 5717 5715 5713 5711 5707 5704 5702 5699 5697 5695 5692 5691 5689 5687 5685
5749 5750 5759 5744 5744 5740 5752 5761 5770 5775 5773 5773 5773 5770 5767 5765 5763 5761 5759 5756 5754 5751 5749 5746 5742 5738 5736 5733 5729 5726 5722 5720 5718 5715 5712 5712 5709 5706 5703 5701 5698 5696 5693 5691 5688 5687 5685 5683 5681
5757 5755 5745 5737 5722 5723 5741 5750 5755 5759 5760 5764 5763 5762 5760 5758 5757 5755 5752 5749 5747 5746 5744 5742 5738 5735 5732 5729 5725 5722 5719 5716 5713 5711 5707 5706 5703 5701 5698 5696 5693 5691 5688 5686 5683 5682 5681 5678 5676
5742 5741 5740 5740 5737 5722 5722 5742 5762 5758 5757 5756 5758 5757 5754 5751 5750 5748 5746 5744 5742 5740 5738 5735 5732 5729 5726 5723 5719 5716 5713 5711 5708 5705 5703 5701 5698 5695 5693 5691 5689 5686 5684 5681 5678 5677 5675 5672 5671
5746 5742 5737 5722 5723 5729 5726 5737 5760 5755 5754 5752 5750 5750 5748 5745 5744 5742 5740 5738 5736 5733 5732 5729 5726 5723 5720 5717 5713 5710 5708 5705 5702 5700 5698 5695 5692 5690 5688 5686 5684 5682 5680 5677 5674 5672 5670 5667 5665